KA1BMF-13 Weather Reports


time (UTC)temp
C
wind
direction
speed
KPH
gust
KPH
rain 1hr
cm
rain 24hr
cm
rain mn
cm
humidity
%
barometer
mb
20260504175518 19 167 9.7 22.5 0.00 0.00 0.00 39 1009.4
20260504174517 19 154 8.0 16.1 0.00 0.00 0.00 38 1009.7
20260504173518 19 155 6.4 12.9 0.00 0.00 0.00 39 1009.7
20260504172538 19 157 4.8 16.1 0.00 0.00 0.00 39 1009.7
20260504171518 19 141 8.0 16.1 0.00 0.00 0.00 38 1009.8
20260504170538 18 138 4.8 12.9 0.00 0.00 0.00 39 1009.8
20260504150537 17 146 4.8 14.5 0.00 0.00 0.00 38 1011.1
20260504140518 16 127 6.4 14.5 0.00 0.00 0.00 39 1011.5
20260504130519 14 130 3.2 8.0 0.00 0.00 0.00 44 1012.2
20260504110559 5 0.0 0.0 0.00 0.00 0.00 79 1012.4
20260504100517 5 322 0.0 1.6 0.00 0.00 0.00 78 1012.1
20260504081519 4 320 0.0 1.6 0.00 0.00 0.00 78 1011.6
20260504080519 4 340 0.0 1.6 0.00 0.00 0.00 77 1011.6
20260504050519 5 0.0 0.0 0.00 0.00 0.00 72 1011.2
20260504045519 5 0.0 0.0 0.00 0.00 0.00 71 1011.3
20260504044520 5 0.0 0.0 0.00 0.00 0.00 71 1011.3
20260504043520 5 0.0 0.0 0.00 0.00 0.00 70 1011.3
20260504042517 5 0.0 0.0 0.00 0.00 0.00 69 1011.3
20260504041557 5 0.0 0.0 0.00 0.00 0.00 68 1011.3
20260504040520 5 299 0.0 1.6 0.00 0.00 0.00 67 1011.2
20260504035517 6 0.0 0.0 0.00 0.00 0.00 65 1011.2
20260504034518 6 296 0.0 1.6 0.00 0.00 0.00 64 1011.1
20260504033518 6 345 0.0 1.6 0.00 0.00 0.00 59 1011.0
20260504032521 6 270 0.0 0.0 0.00 0.00 0.00 60 1011.0
20260504031518 6 310 0.0 1.6 0.00 0.00 0.00 59 1011.0
20260504030518 6 316 0.0 1.6 0.00 0.00 0.00 56 1011.0
20260504025518 6 325 0.0 1.6 0.00 0.00 0.00 59 1011.0
20260504024518 6 0.0 0.0 0.00 0.00 0.00 54 1010.9
20260504023519 7 314 0.0 1.6 0.00 0.00 0.00 58 1011.0
20260504022525 7 0.0 0.0 0.00 0.00 0.00 57 1011.0
20260504021519 7 323 0.0 1.6 0.00 0.00 0.00 53 1010.9
20260504020519 7 298 0.0 1.6 0.00 0.00 0.00 54 1010.9
20260504015516 7 322 0.0 1.6 0.00 0.00 0.00 53 1010.8
20260504014520 7 0.0 0.0 0.00 0.00 0.00 52 1010.8
20260504013520 8 296 0.0 1.6 0.00 0.00 0.00 53 1010.7
20260504012540 8 323 0.0 1.6 0.00 0.00 0.00 53 1010.6
20260504011517 8 305 0.0 1.6 0.00 0.00 0.00 53 1010.5
20260504010618 8 303 0.0 1.6 0.00 0.00 0.00 51 1010.3
20260504005521 8 315 0.0 0.0 0.00 0.03 0.00 51 1010.2
20260504004520 8 0.0 0.0 0.00 0.03 0.00 52 1010.0
20260504003518 8 290 0.0 1.6 0.00 0.03 0.00 49 1009.9
20260504002518 9 0.0 0.0 0.00 0.03 0.00 50 1009.8
20260504001518 9 0.0 0.0 0.00 0.03 0.00 47 1009.6
20260504000518 9 325 0.0 1.6 0.00 0.03 0.00 47 1009.5
20260503235519 10 0.0 0.0 0.00 0.03 0.00 47 1009.3
20260503234522 10 323 0.0 1.6 0.00 0.03 0.00 45 1009.2
20260503233559 10 315 0.0 1.6 0.00 0.03 0.00 44 1009.1
20260503232520 11 321 0.0 3.2 0.00 0.03 0.00 43 1009.1
20260503231519 11 309 0.0 4.8 0.00 0.03 0.00 41 1009.0
20260503230556 12 75 1.6 8.0 0.00 0.03 0.00 41 1009.0
20260503225519 12 45 1.6 6.4 0.00 0.03 0.00 35 1008.9
20260503224520 12 77 1.6 6.4 0.00 0.03 0.00 35 1008.8
20260503223520 12 75 3.2 12.9 0.00 0.03 0.00 37 1008.8
20260503222517 12 15 3.2 11.3 0.00 0.03 0.00 36 1008.7
20260503221538 12 45 4.8 14.5 0.00 0.03 0.00 36 1008.6
20260503220518 12 59 1.6 6.4 0.00 0.03 0.00 37 1008.8
20260503215521 12 107 1.6 6.4 0.00 0.03 0.00 35 1008.7
20260503214518 12 109 3.2 11.3 0.00 0.03 0.00 35 1008.7
20260503213518 12 145 3.2 12.9 0.00 0.03 0.00 36 1008.6
20260503212518 12 323 3.2 11.3 0.00 0.03 0.00 36 1008.7
20260503211519 12 45 4.8 12.9 0.00 0.03 0.00 36 1008.7
20260503210519 12 62 4.8 12.9 0.00 0.03 0.00 36 1008.7
20260503205519 12 66 6.4 12.9 0.00 0.03 0.00 36 1008.6
20260503204519 12 95 4.8 12.9 0.00 0.03 0.00 36 1008.6
20260503203539 12 72 8.0 17.7 0.00 0.03 0.00 37 1008.5
20260503202519 12 50 3.2 6.4 0.00 0.03 0.00 38 1008.7
20260503201517 12 82 6.4 14.5 0.00 0.03 0.00 38 1008.7
20260503200523 12 87 6.4 19.3 0.00 0.03 0.00 37 1008.6
20260503195540 12 144 6.4 14.5 0.00 0.03 0.00 37 1008.6
20260503194520 12 105 4.8 11.3 0.00 0.03 0.00 38 1008.6
20260503193517 12 70 4.8 14.5 0.00 0.03 0.00 38 1008.5
20260503192518 12 119 8.0 17.7 0.00 0.03 0.00 38 1008.5
20260503191518 11 91 4.8 16.1 0.00 0.03 0.00 39 1008.5
20260503190601 12 62 6.4 17.7 0.00 0.03 0.00 38 1008.6
20260503185518 12 13 3.2 11.3 0.00 0.03 0.00 37 1008.5
20260503184518 12 130 6.4 14.5 0.00 0.03 0.00 37 1008.4
20260503183518 11 66 6.4 16.1 0.00 0.03 0.00 38 1008.5
20260503182519 11 64 6.4 14.5 0.00 0.03 0.00 38 1008.5
20260503181519 11 75 8.0 16.1 0.00 0.03 0.00 38 1008.5
20260503180519 11 72 6.4 16.1 0.00 0.03 0.00 39 1008.4